Overview Statistics Trail Chart Weather Telemetry Raw packets
 

This is the latest recevied weather packets stored in our database for station/object N0NB. If no packets are shown the sender has not sent any weather packets the latest 10 day(s).

<< 28 29 30 31 32 33 34 >>
Time Temp. Humidity Pressure Rain* Wind** Luminosity Snow
1788228017 26.67° C 83% 1011 hPa 0 mm - 0 W/m² -
1788227417 27.22° C 82% 1010.9 hPa 0 mm - 0 W/m² -
1788226817 27.22° C 81% 1010.8 hPa 0 mm - 0 W/m² -
1788226217 27.78° C 79% 1010.8 hPa 0 mm - 0 W/m² -
1788225617 28.89° C 77% 1010.8 hPa 0 mm - 0 W/m² -
1788225017 29.44° C 76% 1010.8 hPa 0 mm - 0 W/m² -
1788224417 30.56° C 74% 1010.9 hPa 0 mm - 3 W/m² -
1788223817 31.11° C 73% 1010.9 hPa 0 mm - 12 W/m² -
1788223217 31.11° C 70% 1010.9 hPa 0 mm - 20 W/m² -
1788222617 31.67° C 68% 1010.9 hPa 0 mm - 34 W/m² -
1788222017 32.22° C 66% 1011 hPa 0 mm - 52 W/m² -
1788221417 32.78° C 67% 1011.2 hPa 0 mm - 78 W/m² -
1788220817 32.78° C 67% 1011.4 hPa 0 mm - 106 W/m² -
1788220217 32.78° C 65% 1011.3 hPa 0 mm - 133 W/m² -
1788219617 33.33° C 65% 1011.4 hPa 0 mm - 164 W/m² -
1788219017 33.33° C 63% 1011.4 hPa 0 mm - 188 W/m² -
1788218417 33.89° C 62% 1011.5 hPa 0 mm - 233 W/m² -
1788217817 33.89° C 60% 1011.6 hPa 0 mm - 265 W/m² -
1788217217 33.89° C 61% 1011.7 hPa 0 mm - 320 W/m² -
1788216617 33.33° C 60% 1011.7 hPa 0 mm - 373 W/m² -
1788216022 33.33° C 59% 1011.9 hPa 0 mm - 117 W/m² -
1788215417 33.89° C 56% 1011.9 hPa 0 mm - 154 W/m² -
1788214817 34.44° C 54% 1012 hPa 0 mm - 421 W/m² -
1788214217 34.44° C 56% 1012.1 hPa 0 mm - 434 W/m² -
1788213617 34.44° C 54% 1012.3 hPa 0 mm - 460 W/m² -

* Rain latest hour (hover to see other rain measurements)
** Current wind speed in m/s (hover to see current wind gust speed)